Location: Cahas Mountain Overlook
(37.0833°N, 80.1000°W)
Time: 03:37:22
(UTC-05:00)

Transit 4A - All Passes

Search period start: 15 February 2026 00:00
Search period end: 25 February 2026 00:00
Orbit: 865 x 976 km, 66.8° (Epoch: 13 February)

Date Brightness Start Highest point End Pass type
(mag) Time Alt. Az. Time Alt. Az. Time Alt. Az.
15 Feb - 03:38:45 10° S 03:44:02 38° ESE 03:49:28 10° NE visible
15 Feb - 05:25:14 10° WSW 05:30:22 31° NW 05:35:39 10° N visible
15 Feb - 12:42:59 10° N 12:48:29 31° NE 12:54:03 10° ESE daylight
15 Feb - 14:29:02 10° NW 14:34:55 44° WSW 14:40:53 10° S daylight
16 Feb - 03:46:58 10° S 03:52:39 59° ESE 03:58:29 10° NE visible
16 Feb - 05:34:54 10° W 05:39:22 22° NW 05:43:57 10° N visible
16 Feb - 12:51:27 10° NNW 12:57:25 45° ENE 13:03:28 10° SE daylight
16 Feb - 14:38:13 10° NW 14:43:30 29° WSW 14:48:51 10° SSW daylight
17 Feb - 02:15:05 10° ESE 02:16:01 10° E 02:16:58 10° E visible
17 Feb - 03:55:32 10° SSW 04:01:21 89° ESE 04:07:20 10° NNE visible
17 Feb - 05:45:02 10° W 05:48:30 16° NW 05:52:02 10° N visible
17 Feb - 11:16:13 10° NNE 11:18:45 12° NE 11:21:17 10° ENE daylight
17 Feb - 13:00:02 10° NNW 13:06:16 65° ENE 13:12:35 10° SE daylight
17 Feb - 14:47:47 10° WNW 14:52:02 19° WSW 14:56:18 10° SSW daylight
18 Feb - 02:20:44 10° SE 02:24:27 18° ESE 02:28:12 10° ENE visible
18 Feb - 04:04:21 10° SW 04:10:07 62° WNW 04:16:03 10° NNE visible
18 Feb - 05:56:07 10° NW 05:57:44 11° NW 05:59:20 10° NNW visible
18 Feb - 11:23:54 10° N 11:27:57 18° NE 11:32:02 10° E daylight
18 Feb - 13:08:45 10° NNW 13:15:03 87° WSW 13:21:26 10° SSE daylight
18 Feb - 14:58:23 10° W 15:00:29 12° W 15:02:35 10° WSW daylight
19 Feb - 02:28:08 10° SSE 02:32:56 27° ESE 02:37:51 10° NE visible
19 Feb - 04:13:29 10° SW 04:18:58 41° NW 04:24:38 10° NNE visible
19 Feb - 11:32:03 10° N 11:37:02 24° NE 11:42:06 10° ESE daylight
19 Feb - 13:17:35 10° NW 13:23:46 59° WSW 13:30:00 10° S daylight
20 Feb - 02:36:03 10° S 02:41:29 42° ESE 02:47:03 10° NE visible
20 Feb - 04:22:54 10° WSW 04:27:54 29° NW 04:33:04 10° N visible
20 Feb - 11:40:24 10° N 11:46:03 34° NE 11:51:46 10° ESE daylight
20 Feb - 13:26:37 10° NW 13:32:24 39° WSW 13:38:14 10° S daylight
21 Feb - 02:44:22 10° SSW 02:50:07 66° ESE 02:56:02 10° NNE visible
21 Feb - 04:32:40 10° W 04:36:57 20° NW 04:41:20 10° N visible
21 Feb - 11:48:53 10° NNW 11:54:58 49° ENE 12:01:06 10° SE daylight
21 Feb - 13:35:52 10° NW 13:40:58 26° WSW 13:46:06 10° SSW daylight
22 Feb - 01:11:18 10° ESE 01:13:25 12° E 01:15:34 10° E night (unlit)
22 Feb - 02:53:00 10° SSW 02:58:49 83° WNW 03:04:51 10° NNE visible
22 Feb - 04:42:57 10° WNW 04:46:06 14° NW 04:49:18 10° N visible
22 Feb - 10:13:21 10° NNE 10:16:22 14° NE 10:19:25 10° ENE daylight
22 Feb - 11:57:30 10° NNW 12:03:48 71° ENE 12:10:09 10° SE daylight
22 Feb - 13:45:35 10° WNW 13:49:28 17° WSW 13:53:22 10° SW daylight
23 Feb - 01:17:48 10° SSE 01:21:51 20° ESE 01:25:59 10° ENE night (unlit)
23 Feb - 03:01:54 10° SW 03:07:37 56° WNW 03:13:31 10° NNE visible
23 Feb - 04:54:50 10° NW 04:55:21 10° NW 04:55:51 10° NNW visible
23 Feb - 10:21:13 10° N 10:25:33 19° NE 10:29:55 10° E daylight
23 Feb - 12:06:15 10° NNW 12:12:34 80° WSW 12:18:55 10° SSE daylight
23 Feb - 13:57:10 10° W 13:57:54 10° W 13:58:38 10° WSW daylight
24 Feb - 01:25:22 10° SSE 01:30:22 31° ESE 01:35:29 10° NE night (unlit)
24 Feb - 03:11:06 10° WSW 03:16:30 38° NW 03:22:04 10° NNE visible
24 Feb - 10:29:25 10° N 10:34:37 26° NE 10:39:53 10° ESE daylight
24 Feb - 12:15:08 10° NW 12:21:15 54° WSW 12:27:24 10° S daylight
